EW3708 Weather Reports


time (UTC)temp
F
wind
direction
speed
knots
gust
knots
rain 1hr
in
rain 24hr
in
rain mn
in
humidity
%
barometer
mb
20260510221600 59 133 1.7 3.5 0.00 0.03 0.03 70 1013.3
20260510220056 59 168 0.9 3.5 0.00 0.03 0.03 71 1013.5
20260510214554 59 186 0.9 5.2 0.00 0.03 0.03 70 1013.6
20260510213105 59 227 1.7 4.3 0.00 0.03 0.03 73 1013.4
20260510211634 60 203 0.9 4.3 0.00 0.03 0.03 74 1013.3
20260510210051 60 242 0.9 3.5 0.00 0.03 0.03 74 1013.2
20260510204551 60 285 0.0 2.6 0.00 0.03 0.03 74 1013.0
20260510203050 59 244 1.7 4.3 0.00 0.03 0.03 75 1013.0
20260510201553 59 293 0.9 4.3 0.00 0.03 0.03 77 1012.8
20260510200055 59 196 0.9 2.6 0.00 0.03 0.03 81 1012.9
20260510194552 59 165 0.9 2.6 0.00 0.08 0.03 83 1012.9
20260510193047 59 107 0.9 2.6 0.00 0.08 0.03 84 1013.2
20260510191614 58 228 0.0 2.6 0.00 0.08 0.03 85 1013.4
20260510190059 58 228 0.0 2.6 0.01 0.08 0.03 86 1013.5
20260510184549 58 189 0.9 3.5 0.01 0.16 0.03 86 1013.4
20260510183053 57 186 0.9 2.6 0.02 0.16 0.03 89 1013.3
20260510181545 57 193 0.9 2.6 0.02 0.16 0.03 88 1013.5
20260510180051 57 213 0.9 1.7 0.02 0.15 0.02 88 1013.4
20260510174546 57 190 0.9 2.6 0.02 0.26 0.02 86 1013.5
20260510173042 57 245 0.0 2.6 0.01 0.25 0.01 85 1013.5
20260510171542 58 188 0.9 3.5 0.01 0.25 0.01 82 1013.3
20260510170141 59 227 0.9 4.3 0.00 0.24 0.00 80 1013.2
20260510164539 59 256 0.9 6.1 0.00 0.32 0.00 76 1013.2
20260510163038 60 184 1.7 6.1 0.00 0.32 0.00 75 1013.2
20260510161537 60 317 0.9 3.5 0.00 0.32 0.00 73 1013.1
20260510160036 61 204 0.9 3.5 0.00 0.32 0.00 72 1012.8
20260510154550 61 227 0.9 6.1 0.00 0.34 0.00 72 1012.9
20260510153034 61 219 1.7 4.3 0.00 0.34 0.00 72 1012.7
20260510151507 61 187 1.7 5.2 0.00 0.34 0.00 70 1012.7
20260510150005 61 278 1.7 5.2 0.00 0.34 0.00 75 1012.6
20260510144502 60 239 0.9 4.3 0.00 0.39 0.00 74 1012.3
20260510143002 61 190 2.6 7.0 0.00 0.39 0.00 72 1012.3
20260510141600 60 240 1.7 5.2 0.00 0.39 0.00 74 1012.3
20260510140057 60 153 1.7 4.3 0.00 0.39 0.00 77 1012.2
20260510134554 59 123 1.7 5.2 0.00 0.41 0.00 79 1012.1
20260510133051 58 220 1.7 4.3 0.00 0.41 0.00 81 1012.1
20260510131548 57 262 0.9 7.0 0.00 0.41 0.00 81 1011.9
20260510130046 57 148 1.7 4.3 0.00 0.41 0.00 82 1011.9
20260510124554 56 221 1.7 5.2 0.00 0.41 0.00 83 1012.0
20260510123039 55 200 0.9 3.5 0.00 0.41 0.00 87 1011.8
20260510121536 53 215 2.6 6.1 0.00 0.41 0.00 92 1011.5
20260510120032 53 219 0.0 2.6 0.00 0.41 0.00 95 1011.4
20260510114529 52 157 0.0 2.6 0.00 0.41 0.00 96 1011.4
20260510113026 51 156 0.9 2.6 0.00 0.41 0.00 96 1011.0
20260510111524 50 156 0.0 1.7 0.00 0.41 0.00 95 1010.9
20260510110036 50 156 0.0 0.9 0.00 0.41 0.00 95 1010.9
20260510104522 50 156 0.0 0.9 0.00 0.42 0.00 95 1010.7
20260510103022 50 156 0.0 1.7 0.00 0.42 0.00 95 1010.6
20260510101521 50 156 0.0 0.9 0.00 0.42 0.00 95 1010.4
20260510100021 50 156 0.0 0.9 0.00 0.42 0.00 95 1010.4
20260510094539 49 156 0.9 2.6 0.00 0.42 0.00 95 1010.4
20260510093020 49 154 0.9 2.6 0.00 0.42 0.00 95 1010.3
20260510091523 49 189 0.0 1.7 0.00 0.42 0.00 95 1010.2
20260510090019 49 284 0.0 1.7 0.00 0.42 0.00 94 1010.0
20260510084518 49 284 0.0 0.9 0.00 0.42 0.00 94 1009.8
20260510083015 49 284 0.0 0.9 0.00 0.42 0.00 95 1009.6
20260510081517 50 284 0.0 0.9 0.00 0.42 0.00 95 1009.8
20260510080015 50 284 0.0 0.9 0.00 0.42 0.00 95 1009.8
20260510074513 50 284 0.0 0.9 0.00 0.42 0.00 95 1009.7
20260510073017 50 284 0.9 1.7 0.00 0.42 0.00 95 1010.0
20260510071512 50 284 0.0 1.7 0.00 0.42 0.00 95 1010.5
20260510070020 50 284 0.0 0.9 0.00 0.42 0.00 95 1010.8
20260510064510 50 284 0.0 0.9 0.00 0.42 0.00 94 1010.9
20260510063009 50 284 0.0 0.9 0.00 0.42 0.00 94 1010.9
20260510061508 50 284 0.0 3.5 0.00 0.42 0.00 95 1010.8
20260510060009 50 144 0.0 2.6 0.00 0.42 0.00 95 1010.4
20260510054506 50 144 0.0 1.7 0.00 0.42 0.00 95 1010.4
20260510053023 50 144 0.0 1.7 0.00 0.42 0.00 95 1010.6
20260510051504 50 144 0.0 2.6 0.00 0.42 0.00 95 1010.6
20260510050005 50 238 0.0 0.9 0.00 0.42 0.00 95 1010.4
20260510044559 50 238 0.0 2.6 0.00 0.42 0.00 94 1010.3
20260510043104 50 136 0.0 2.6 0.00 0.42 0.00 94 1010.0
20260510041555 50 178 0.9 2.6 0.00 0.42 0.00 94 1009.8
20260510040053 50 130 0.0 2.6 0.00 0.42 0.00 94 1009.9
20260510034552 50 113 0.9 4.3 0.00 0.42 0.42 94 1009.9
20260510033101 50 138 0.9 2.6 0.00 0.42 0.42 94 1009.9
20260510031553 50 150 0.9 1.7 0.00 0.42 0.42 94 1009.9
20260510030051 50 150 0.9 2.6 0.00 0.42 0.42 94 1009.9
20260510024551 50 150 0.9 3.5 0.00 0.42 0.42 94 1009.8
20260510023049 50 148 0.0 1.7 0.00 0.42 0.42 94 1009.9
20260510021552 50 191 0.9 3.5 0.00 0.42 0.42 94 1010.0
20260510020049 49 150 0.0 0.9 0.00 0.42 0.42 92 1010.0
20260510014548 49 150 0.0 1.7 0.00 0.42 0.42 92 1009.8
20260510013051 49 150 0.0 0.0 0.00 0.42 0.42 91 1009.7
20260510011551 50 150 0.0 0.9 0.00 0.42 0.42 91 1009.5
20260510010046 51 150 0.0 0.9 0.00 0.42 0.42 90 1009.4
20260510004545 51 150 0.0 1.7 0.00 0.42 0.42 90 1009.2
20260510003045 52 150 0.0 1.7 0.00 0.42 0.42 89 1009.2
20260510001644 52 150 0.0 0.0 0.00 0.42 0.42 88 1009.2
20260510000050 53 150 0.0 2.6 0.00 0.42 0.42 88 1009.0
20260509234543 54 150 0.9 2.6 0.00 0.42 0.42 87 1008.7
20260509233043 54 152 0.9 1.7 0.00 0.42 0.42 86 1008.6
20260509231544 54 188 0.0 3.5 0.00 0.42 0.42 86 1008.5
20260509230041 55 164 1.7 4.3 0.00 0.42 0.42 84 1008.3
20260509224540 55 128 0.9 6.1 0.00 0.42 0.42 83 1008.6
20260509223040 55 155 0.9 3.5 0.00 0.42 0.42 85 1008.6